Effective Sunday, March 17, 2024, the National Weather Service National Data Buoy Center will discontinue its Dial-A-Buoy Interactive Voice Response system. For more information, see Service Change Notice 24-06 (PDF).

Station 46054 (LLNR 198.1) - WEST SANTA BARBARA 38 NM West of Santa Barbara, CA Image indicating link to RSS feed of recent meteorological observations for station 46054


Conditions at 46054 as of
(3:40 pm PST)
2340 GMT on 02/23/2024:
     

Click on the graph icon in the table below to see a time series plot of the last five days of that observation.

5-day plot - Wind Direction Wind Direction (WDIR): SW ( 220 deg true )
5-day plot - Wind Speed Wind Speed (WSPD): 3.9 kts
5-day plot - Wind Gust Wind Gust (GST): 5.8 kts
5-day plot - Atmospheric Pressure Atmospheric Pressure (PRES):29.98 in
5-day plot - Air Temperature Air Temperature (ATMP): 60.1 °F
5-day plot - Dew Point Dew Point (DEWP): 56.3 °F
5-day plot - Wind Speed at 10 Meters Wind Speed at 10 meters (WSPD10M): 3.9 kts
5-day plot - Wind Speed at 20 Meters Wind Speed at 20 meters (WSPD20M): 3.9 kts
5-day plot -  Wind Speed, Wind Gust and Atmospheric Pressure Combined plot of Wind Speed, Gust, and Air Pressure
Supplemental Measurements
Highest 1-minute Wind Speed
Time (PST)5-day plot - 1-Minute Wind Speed WSPD 5-day plot - 1-Minute Wind Direction WDIR
3:37 pm 3.9 kts-
Previous observations
TIME
(PST)
5-day plot - Wind Direction
WDIR
 
5-day plot - Wind Speed
WSPD
kts
5-day plot - Wind Gust
GST
kts
5-day plot - Wave Height
WVHT
ft
5-day plot - Dominant Wave Period
DPD
sec
5-day plot - Average Wave Period
APD
sec
5-day plot - Mean Wave Direction
MWD
 
5-day plot - Atmospheric Pressure
PRES
in
5-day plot - Pressure Tendency
PTDY
in
5-day plot - Air Temperature
ATMP
°F
5-day plot - Water Temperature
WTMP
°F
5-day plot - Dew Point
DEWP
°F
5-day plot - Salinity
SAL
psu
5-day plot - Visibility
VIS
nmi
5-day plot - Tide (above MLLW)
TIDE
ft
2024-02-23 03:30 pmSSW 3.9 5.8----29.98- 59.7 58.8 56.3---
2024-02-23 03:20 pmSSW 5.8 7.8 5.2 159.8WNW29.98- 59.5 58.8 56.3---
2024-02-23 03:10 pmSSW 5.8 7.8 5.2-9.8WNW29.98- 59.4 58.8 56.5---
2024-02-23 03:00 pmSSW 7.8 7.8----29.98-0.04 59.4 58.8 56.5---
2024-02-23 02:50 pmSSW 7.8 9.7 4.9 149.2WNW29.98- 59.5 58.6 56.8---
2024-02-23 02:40 pmSSW 7.8 9.7----29.99- 59.7 58.6 56.8---
2024-02-23 02:30 pmSSE 3.9 5.8----29.99- 59.7 58.5 56.7---
2024-02-23 02:20 pm S 3.9 5.8 4.9 159.2WNW29.99- 60.1 58.6 56.7---
2024-02-23 02:10 pmSSE 3.9 3.9 4.9-9.2WNW30.00- 60.1 58.6 56.3---
2024-02-23 02:00 pmSSE 3.9 3.9----30.00-0.06 60.3 58.6 56.3---
2024-02-23 01:50 pmESE 3.9 5.8 4.9 159.6WNW30.00- 60.3 58.5 55.9---
2024-02-23 01:40 pm E 3.9 5.8----30.00- 60.3 58.5 55.9---
2024-02-23 01:30 pm E 5.8 7.8----30.00- 60.1 58.5 55.8---
2024-02-23 01:20 pm E 5.8 7.8 4.6 158.9WNW30.00- 59.9 58.3 55.6---
2024-02-23 01:10 pmENE 5.8 7.8 4.6-8.9WNW30.01- 59.9 58.3 55.4---
2024-02-23 01:00 pm E 3.9 7.8----30.01-0.05 59.7 58.3 55.4---
2024-02-23 12:50 pmENE 5.8 7.8 4.9 159.5WNW30.02- 59.5 58.3 55.4---
2024-02-23 12:40 pmENE 5.8 7.8 4.9-9.5WNW30.02- 59.0 58.3 55.2---
2024-02-23 12:30 pmENE 5.8 7.8----30.02- 58.8 58.1 55.9---
2024-02-23 12:20 pm NE 7.8 9.7 4.6 159.2WNW30.02- 58.6 58.1 55.9---
2024-02-23 12:10 pmENE 7.8 9.7 4.6-9.2WNW30.02- 58.5 58.1 56.1---
2024-02-23 12:00 pmENE 7.8 9.7----30.03-0.03 58.5 58.1 56.1---
2024-02-23 11:50 am NE 7.8 9.7 4.3 158.7WNW30.03- 58.3 58.1 55.9---
2024-02-23 11:40 am NE 5.8 7.8----30.04- 58.3 58.1 55.9---
2024-02-23 11:30 am NE 5.8 7.8----30.05- 58.3 58.1 56.1---
2024-02-23 11:20 am NE 5.8 7.8 4.6 158.4WNW30.05- 58.3 58.1 56.3---
2024-02-23 11:10 am NE 5.8 7.8 4.6-8.4WNW30.06- 58.3 58.1 56.7---
2024-02-23 11:00 am NE 5.8 7.8----30.06+0.00 58.1 58.1 56.7---
2024-02-23 10:50 am NE 5.8 7.8 3.9 157.5 W30.06- 58.3 58.1 56.8---
2024-02-23 10:40 am NE 5.8 7.8----30.06- 58.3 58.1 56.8---
2024-02-23 10:30 am NE 3.9 5.8----30.06- 58.5 58.1 56.8---
2024-02-23 10:20 am NE 3.9 5.8 4.6 158.4WNW30.06- 58.5- 56.8---
2024-02-23 10:10 am NE 3.9 5.8 4.6-8.4WNW30.06- 58.5 58.1 56.7---
2024-02-23 10:00 amENE 3.9 5.8----30.06+0.04 58.5 57.9 56.7---
2024-02-23 09:50 am E 3.9 3.9 4.9 158.4WNW30.07- 58.5 57.9 57.0---
2024-02-23 09:40 am E 3.9 7.8----30.06- 58.3 57.9 56.8---
2024-02-23 09:30 amESE 5.8 7.8----30.06- 58.3 57.9 56.8---
2024-02-23 09:20 am SE 3.9 5.8 4.6 157.7WNW30.06- 58.1 57.9 56.8---
2024-02-23 09:10 am SE 5.8 7.8 4.6-7.7WNW30.06- 57.9 57.9 56.7---
2024-02-23 09:00 am E 5.8 7.8----30.06+0.00 57.7 57.9 56.5---
2024-02-23 08:50 am E 3.9 5.8 4.6 157.8 W30.06- 57.9 57.9 56.7---
2024-02-23 08:40 am SE 3.9 7.8----30.07- 57.9 57.9 56.5---
2024-02-23 08:30 am SE 3.9 7.8----30.07- 57.7 57.9 56.3---
2024-02-23 08:20 amESE 3.9 5.8 4.6 157.9WNW30.06- 57.7 57.9 56.3---
2024-02-23 08:10 am SE 5.8 7.8 4.6-7.9WNW30.06- 57.7 57.9 56.3---
2024-02-23 08:00 amESE 5.8 7.8----30.06+0.01 57.7 57.9 56.3---
2024-02-23 07:50 am E 5.8 7.8 4.9 157.5WNW30.05- 57.7- 56.5---
2024-02-23 07:40 am E 5.8 7.8----30.04- 57.7 57.9 56.3---
2024-02-23 07:30 am E 1.9 3.9----30.04- 57.7 57.9 56.3---
2024-02-23 07:20 amENE 3.9 5.8 5.2 157.9WNW30.03- 57.7 57.9 56.3---
2024-02-23 07:10 am E 3.9 5.8 5.2-7.9WNW30.03- 57.7 57.9 56.1---
2024-02-23 07:00 am E 5.8 7.8----30.03-0.03 57.7 57.9 55.9---
2024-02-23 06:50 am E 5.8 9.7 4.3 157.1WNW30.04- 57.7 57.9 55.8---
2024-02-23 06:40 am E 5.8 7.8----30.04- 57.7 57.9 55.6---
2024-02-23 06:30 am E 3.9 7.8----30.04- 57.7 57.9 55.4---
2024-02-23 06:20 am E 3.9 7.8 4.6 157.3WNW30.05- 57.7 58.1 55.4---
2024-02-23 06:10 amESE 3.9 7.8 4.6-7.3WNW30.05- 57.7 58.1 55.4---
2024-02-23 06:00 am E 5.8 7.8----30.05-0.02 57.9 58.1 55.6---
2024-02-23 05:50 am E 5.8 7.8 4.9 157.4WNW30.05- 57.7 58.1 55.2---
2024-02-23 05:40 am E 5.8 9.7----30.05- 57.7 58.1 55.2---
2024-02-23 05:30 am E 5.8 7.8----30.05- 57.9 58.1 55.4---
2024-02-23 05:20 amENE 5.8 9.7 5.2 157.2WNW30.05- 57.9 58.1 55.2---
2024-02-23 05:10 amENE 7.8 9.7 5.2-7.2WNW30.05- 57.7 58.1 54.9---
2024-02-23 05:00 amENE 7.8 9.7----30.05-0.05 57.6 58.1 55.2---
2024-02-23 04:50 amENE 7.8 9.7 5.6 158.0WNW30.05- 57.6 58.1 55.2---
2024-02-23 04:40 am NE 7.8 9.7----30.05- 57.6 58.1 55.0---
2024-02-23 04:30 am NE 7.8 9.7----30.05- 57.6 58.1 55.0---
2024-02-23 04:20 am NE 7.8 9.7 5.2 157.6WNW30.05- 57.6 58.1 55.0---
2024-02-23 04:10 am NE 7.8 9.7 5.2-7.6WNW30.06- 57.6 58.1 55.0---
2024-02-23 04:00 am NE 7.8 9.7----30.06-0.06 57.6 58.1 54.9---
2024-02-23 03:50 am NE 5.8 7.8 5.6 157.7 NW30.06- 57.7 58.1 55.0---
2024-02-23 03:40 am NE 5.8 7.8----30.06- 57.7 58.1 54.5---
2024-02-23 03:30 am NE 5.8 7.8----30.07- 57.6 58.1 54.1---
2024-02-23 03:20 amNNE 3.9 5.8 4.9 116.8WNW30.06- 57.6 58.1 54.3---
2024-02-23 03:10 am N 5.8 7.8 4.9-6.8WNW30.07- 57.4 58.1 54.3---
2024-02-23 03:00 am N 7.8 9.7----30.07-0.06 57.2 58.3 54.7---
2024-02-23 02:50 amNNW 7.8 9.7 5.6 157.6WNW30.08- 57.2 58.1 54.7---
2024-02-23 02:40 amNNW 7.8 9.7 5.6-7.6WNW30.08- 57.2 58.1 54.5---
2024-02-23 02:30 amNNW 7.8 9.7----30.09- 57.2 58.1 54.7---
2024-02-23 02:20 am NW 7.8 9.7 5.6 147.4WNW30.09- 57.2 58.1 54.7---
2024-02-23 02:10 am NW 7.8 9.7 5.6-7.4WNW30.09- 57.2 58.3 54.7---
2024-02-23 02:00 amNNW 9.7 11.7----30.09-0.06 57.2 58.3 54.7---
2024-02-23 01:50 am NW 9.7 11.7 5.6 157.2WNW30.10- 57.2 58.3 54.7---
2024-02-23 01:40 am NW 11.7 13.6 5.6-7.2WNW30.11- 57.2 58.3 54.7---
2024-02-23 01:30 am NW 11.7 13.6----30.11- 57.4 58.3 54.9---
2024-02-23 01:20 am NW 13.6 15.5 5.6 117.2WNW30.11- 57.4 58.3 54.7---
2024-02-23 01:10 am NW 13.6 15.5 5.6-7.2WNW30.12- 57.4 58.3 54.5---
2024-02-23 01:00 am NW 13.6 17.5----30.12-0.03 57.2 58.3 54.5---
2024-02-23 12:50 am NW 13.6 17.5 5.6 156.9WNW30.13- 57.2 58.3 54.7---
2024-02-23 12:40 am NW 13.6 17.5 5.6-6.9WNW30.13- 57.2 58.3 54.7---
2024-02-23 12:30 amWNW 15.5 17.5----30.12- 57.2 58.3 54.7---
2024-02-23 12:20 am NW 15.5 17.5 5.9 147.3WNW30.13- 57.2 58.3 54.7---
2024-02-23 12:10 am NW 13.6 17.5 5.9-7.3WNW30.13- 57.2 58.3 54.5---
2024-02-23 12:00 am NW 13.6 17.5----30.14-0.03 57.2 58.3 54.3---
2024-02-22 11:50 pm NW 13.6 15.5 5.6 147.0 NW30.14- 57.2 58.3 54.3---
2024-02-22 11:40 pm NW 13.6 17.5 5.6-7.0 NW30.14- 57.2 58.3 54.3---
2024-02-22 11:30 pm NW 13.6 15.5----30.15- 57.2 58.3 54.3---
2024-02-22 11:20 pm NW 13.6 15.5 5.6 166.6 W30.15-- 58.3----
2024-02-22 11:10 pm NW 13.6 17.5----30.15- 57.4 58.5 54.3---
2024-02-22 11:00 pm NW 13.6 17.5----30.15+0.00 57.4 58.5 54.3---
2024-02-22 10:50 pm NW 13.6 17.5 5.6 116.1 NW30.16- 57.4 58.5 54.1---
2024-02-22 10:40 pm NW 15.5 19.4----30.16- 57.4 58.5 54.0---
2024-02-22 10:30 pm NW 15.5 17.5----30.16- 57.4 58.5 53.8---
2024-02-22 10:20 pm NW 15.5 17.5 5.9 156.6WNW30.16- 57.4 58.5 53.6---
2024-02-22 10:10 pm NW 15.5 19.4 5.9-6.6WNW30.16- 57.6 58.3 53.6---
2024-02-22 10:00 pm NW 15.5 19.4----30.16+0.00 57.6 57.9 53.4---
2024-02-22 09:50 pm NW 15.5 19.4 5.2 156.4 NW30.16- 57.6 58.1 53.4---
2024-02-22 09:40 pm NW 15.5 19.4----30.16- 57.4 58.1 53.2---
2024-02-22 09:30 pm NW 15.5 17.5----30.16- 57.6 58.1 53.4---
2024-02-22 09:20 pm NW 15.5 17.5 5.9 156.8 NW30.16- 57.6 58.1 53.4---
2024-02-22 09:10 pm NW 13.6 17.5 5.9-6.8 NW30.16- 57.4 58.1 53.2---
2024-02-22 09:00 pm NW 13.6 17.5----30.16+0.01 57.4 58.1 53.4---
2024-02-22 08:50 pm NW 13.6 17.5 6.2 116.7WNW30.16- 57.4 58.1 53.4---
2024-02-22 08:40 pm NW 13.6 17.5 6.2-6.7WNW30.16- 57.2 58.1 53.2---
2024-02-22 08:30 pm NW 13.6 17.5----30.16- 57.2 58.1 53.6---
2024-02-22 08:20 pm NW 15.5 17.5 5.9 156.4 NW30.16- 57.2 57.9 53.4---
2024-02-22 08:10 pm NW 15.5 17.5 5.9-6.4 NW30.16- 57.2 57.9 53.4---
2024-02-22 08:00 pm NW 15.5 19.4----30.16+0.01 57.2 57.9 53.4---
2024-02-22 07:50 pm NW 15.5 19.4 6.2 156.6 NW30.16- 57.2 57.9 53.6---
2024-02-22 07:40 pm NW 15.5 17.5----30.16- 57.0 57.9 53.8---
2024-02-22 07:30 pm NW 13.6 15.5----30.16- 57.0 57.9 54.0---
2024-02-22 07:20 pm NW 15.5 17.5 6.6 156.8WNW30.15- 57.0 57.9 53.8---
2024-02-22 07:10 pm NW 15.5 19.4 6.6-6.8WNW30.15- 57.0 57.9 54.0---
2024-02-22 07:00 pm NW 15.5 19.4----30.15+0.00 57.0 57.9 54.0---
2024-02-22 06:50 pm NW 15.5 19.4 6.6 157.1 NW30.15- 57.0 57.9 54.0---
2024-02-22 06:40 pm NW 15.5 19.4 6.6-7.1 NW30.15- 57.2 57.9 54.0---
2024-02-22 06:30 pm NW 15.5 19.4----30.15- 57.0 57.9 53.8---
2024-02-22 06:20 pm NW 15.5 19.4 5.9 166.3WNW30.15- 57.2 57.9 53.8---
2024-02-22 06:10 pm NW 15.5 19.4 5.9-6.3WNW30.15- 57.2 57.9 53.8---
2024-02-22 06:00 pm NW 15.5 17.5----30.15-0.02 57.2 57.9 53.8---
2024-02-22 05:50 pm NW 13.6 17.5 6.6 156.8WNW30.15- 57.2 58.1 53.8---
2024-02-22 05:40 pm NW 13.6 17.5 6.6-6.8WNW30.15- 57.4 57.9 54.0---
2024-02-22 05:30 pm NW 13.6 17.5----30.15- 57.4 57.9 54.0---
2024-02-22 05:20 pm NW 15.5 17.5 6.6 156.7WNW30.14- 57.4 57.9 54.0---
2024-02-22 05:10 pm NW 15.5 17.5----30.14- 57.2 58.1 54.0---
2024-02-22 05:00 pm NW 15.5 17.5----30.14-0.04 57.4 58.1 54.1---
2024-02-22 04:50 pm NW 13.6 17.5 6.6 116.4WNW30.14- 57.4 58.1 54.3---
2024-02-22 04:40 pm NW 13.6 17.5 6.6-6.4WNW30.14- 57.4 58.1 54.0---
2024-02-22 04:30 pm NW 13.6 17.5----30.15- 57.4 58.1 53.8---
2024-02-22 04:20 pm NW 15.5 19.4 6.9 156.5 NW30.16- 57.4 58.1 54.1---
2024-02-22 04:10 pm NW 17.5 21.4 6.9-6.5 NW30.15- 57.4 58.1 54.1---
2024-02-22 04:00 pm NW 17.5 19.4----30.15-0.04 57.4 58.1 54.0---
2024-02-22 03:50 pm NW 15.5 19.4 6.6 167.0WNW30.15- 57.6 58.1 54.3---

Detailed Wave Summary
for 46054 as of (3:10 pm PST)
2310 GMT on 02/23/2024:

These wave data are displayed in rounded times.

     

Click on the graph icon in the table below to see a time series plot of the last five days of that observation.

5-day plot - Significant Wave Height Significant Wave Height (WVHT): 5.2 ft
5-day plot - Swell Height Swell Height (SwH): 5.2 ft
5-day plot - Swell Period Swell Period (SwP): 14.8 sec
5-day plot - Swell Direction Swell Direction (SwD):WNW
5-day plot - Wind Wave Height Wind Wave Height (WWH): 0.7 ft
5-day plot - Wind Wave Period Wind Wave Period (WWP): 3.3 sec
5-day plot - Wind Wave Direction Wind Wave Direction (WWD):WNW
5-day plot - Wave Steepness Wave Steepness (STEEPNESS): SWELL
5-day plot - Average Wave Period Average Wave Period (APD): 9.8 sec
Previous observations
TIME
(PST)
5-day plot - Wave Height
WVHT
ft
5-day plot - Swell Height
SwH
ft
5-day plot - Swell Period
SwP
sec
5-day plot - Swell Direction
SwD
 
5-day plot - Wind Wave Height
WWH
ft
5-day plot - Wind Wave Period
WWP
sec
5-day plot - Wind Wave Direction
WWD
 
5-day plot - Wave Steepness
STEEPNESS
 
5-day plot - Average Wave Period
APD
sec
2024-02-23 02:40 pm 4.9 4.9 13.8WNW 0.7 4.0 NW SWELL 9.2
2024-02-23 02:10 pm 4.9 4.9 14.8WNW 0.7 3.3 WNW SWELL 9.2
2024-02-23 01:40 pm 4.9 4.9 14.8WNW 0.7 4.0 NW SWELL 9.6
2024-02-23 01:10 pm 4.6 4.6 14.8WNW 0.7 3.7 WNW SWELL 8.9
2024-02-23 12:40 pm 4.9 4.9 14.8WNW 0.7 3.8 WNW SWELL 9.5
2024-02-23 12:10 pm 4.6 4.6 14.8WNW 0.7 4.0 WNW SWELL 9.2
2024-02-23 11:40 am 4.3 4.3 14.8WNW 0.7 3.4 NW SWELL 8.7
2024-02-23 11:10 am 4.6 4.3 14.8WNW 1.0 4.0 WNW SWELL 8.4
2024-02-23 10:40 am 3.9 3.9 14.8 W 1.0 3.8 WNW SWELL 7.5
2024-02-23 10:10 am 4.6 4.6 14.8WNW 1.0 4.0 WNW SWELL 8.4
2024-02-23 09:40 am 4.9 4.9 14.8WNW 1.0 3.8 WNW SWELL 8.4
2024-02-23 09:10 am 4.6 4.3 14.8WNW 1.0 4.0 WNW SWELL 7.7
2024-02-23 08:40 am 4.6 4.6 14.8 W 1.0 3.4 WNW SWELL 7.8
2024-02-23 08:10 am 4.6 4.6 14.8WNW 1.3 3.8 WNW SWELL 7.9
2024-02-23 07:40 am 4.9 4.6 14.8WNW 1.3 3.6 NW SWELL 7.5
2024-02-23 07:10 am 5.2 4.9 14.8WNW 1.0 3.8 WNW SWELL 7.9
2024-02-23 06:40 am 4.3 4.3 14.8WNW 1.0 3.8 WNW SWELL 7.1
2024-02-23 06:10 am 4.6 4.6 14.8WNW 1.3 3.8 WNW SWELL 7.3
2024-02-23 05:40 am 4.9 4.6 14.8WNW 1.3 3.8 WNW SWELL 7.4
2024-02-23 05:10 am 5.2 4.9 14.8WNW 1.3 3.4 WNW SWELL 7.2
2024-02-23 04:40 am 5.6 5.6 14.8WNW 1.3 4.0 WNW SWELL 8.0
2024-02-23 04:10 am 5.2 4.9 14.8WNW 1.3 3.8 WNW SWELL 7.6
2024-02-23 03:40 am 5.6 5.2 14.8 NW 1.3 3.8 WNW SWELL 7.7
2024-02-23 03:10 am 4.9 4.6 10.8WNW 1.3 3.7 NW SWELL 6.8
2024-02-23 02:40 am 5.6 5.6 14.8WNW 1.3 3.8 WNW SWELL 7.6
2024-02-23 02:10 am 5.6 5.6 13.8WNW 1.3 4.0 W SWELL 7.4
2024-02-23 01:40 am 5.6 5.2 14.8WNW 2.3 4.5 WNW SWELL 7.2
2024-02-23 01:10 am 5.6 5.2 10.8WNW 2.3 4.3 WNW SWELL 7.2
2024-02-23 12:40 am 5.6 4.9 14.8WNW 2.6 4.5 WNW SWELL 6.9
2024-02-23 12:10 am 5.9 5.2 13.8WNW 2.3 5.9 W SWELL 7.3
2024-02-22 11:40 pm 5.6 4.9 13.8 NW 2.3 5.9 W SWELL 7.0
2024-02-22 11:10 pm 5.6 4.9 16.0 W 2.6 4.3 NW SWELL 6.6
2024-02-22 10:40 pm 5.6 4.6 10.8 NW 3.0 4.3 NW SWELL 6.1
2024-02-22 10:10 pm 5.9 5.2 14.8WNW 2.6 4.3 NW SWELL 6.6
2024-02-22 09:40 pm 5.2 4.6 14.8 NW 2.3 5.0 WNW SWELL 6.4
2024-02-22 09:10 pm 5.9 5.2 14.8 NW 2.6 4.5 NW SWELL 6.8
2024-02-22 08:40 pm 6.2 5.6 11.4WNW 3.0 4.3 NW SWELL 6.7
2024-02-22 08:10 pm 5.9 5.2 14.8 NW 3.0 4.2 NW SWELL 6.4
2024-02-22 07:40 pm 6.2 5.6 14.8 NW 3.0 6.2 W SWELL 6.6
2024-02-22 07:10 pm 6.6 5.9 14.8WNW 3.0 3.8 NW SWELL 6.8
2024-02-22 06:40 pm 6.6 5.9 14.8 NW 2.6 4.8 WNW SWELL 7.1
2024-02-22 06:10 pm 5.9 5.2 16.0WNW 3.0 4.5 WNW SWELL 6.3
2024-02-22 05:40 pm 6.6 5.9 14.8WNW 3.0 5.9 W SWELL 6.8
2024-02-22 05:10 pm 6.6 5.9 14.8WNW 3.0 4.5 WNW SWELL 6.7
2024-02-22 04:40 pm 6.6 5.9 11.4WNW 3.3 4.5 WNW SWELL 6.4
2024-02-22 04:10 pm 6.9 5.9 14.8 NW 3.3 4.8 WNW SWELL 6.5

Plot of wave energy versus frequency (and period)